CZ-3C DEB, 40207

Orbit data source: Space-Track

CZ-3C DEB, 40207 is space debris in HEO originally from a launch on Fri, 24 Feb 2012 UTC launched from the Xichang Space Center, China (XSC). Debris objects in space refer to the collection of defunct objects orbiting the Earth. Examples of debris include non-operational satellites, rocket bodies, and fragments generated from explosions, collisions, or faulty payload assembly.

Loading next visibility...
Identifier
40207, 2012-008S
Orbit
HEO
Country
Flag of CNCN / PRC
Related business
Manufacturer
CALT
Mission
Spacecraft
Bus & Motor
Unknown
Mass
Unknown
Launch date (UTC)
2012-02-24 (14 years ago)
Launch vehicle
Unknown
Launch site
Xichang Space Center, China (XSC)
Object type
Payload
Rocket body
Debris
Shape & HBR
Unknown shape, 0.3 m
Radar Cross Section
Medium (>0.1 m² and <1 m²)

Expand to show TLE details & history
Last TLE update: 18 hours ago

TLE from 18 hours ago
0 CZ-3C DEB
1 40207U 12008S   25352.32339674  .00001922  00000-0  10486-1 0  9992
2 40207  19.6636  16.1267 7227149 261.0395  18.2757  2.24085847 91366
Epoch: 2025-12-18T07:45Z
TLE epoch observation values (Epoch: 2025-12-18T07:45:41.478Z)
Latitude
-0.00001°
Longitude
172.54178°
Altitude
6,875.899 km
Speed
6.632 km/s
True Right ascension
01h 04m 34s
True Declination
0° 00' 00"
Sunlit
Object was in daylight at epoch
Visualization orbit readout
Latitude
Unknown
Longitude
Unknown
Altitude
Unknown
Speed
Unknown
Apparent Right ascension
Unknown
Apparent Declination
Unknown
Sunlit
N/A
Visualization observer readout
Local Sidereal Time
00:43:15
Azimuth
Unknown
Elevation
Unknown
Doppler factor
Unknown
Orbital elements
Apogee altitude
36,124.735 km
Perigee altitude
463.049 km
Semi-major axis
24,672.029 km
Eccentricity
0.72271
Inclination
19.6636°
RAAN
16.1267°
Arg. of periapsis
261.0395°
True anomaly
98.5762°
Mean anomaly
18.2757°
Eccentric anomaly
49.99339°
Mean motion
0.56006 °/min
Orbital period
642.79 mins
BSTAR
0.010486
Loading maneuver chart data...
Computing Atmospheric mass density...
Loading historical data...
Loading historical data...
Loading historical data...
Loading historical data...
Loading historical data...
Loading historical data...
Loading historical data...

Documentation

Showing up to 5 results
|